Year,Month,Day,Hour,Minute,Value (Times are PST for temperature in C)
2008,05,25,00,00,16.30
2008,05,25,00,01,16.30
2008,05,25,00,02,16.20
2008,05,25,00,03,16.20
2008,05,25,00,04,16.20
2008,05,25,00,05,16.20
2008,05,25,00,06,16.20
2008,05,25,00,07,16.10
2008,05,25,00,08,16.10
2008,05,25,00,09,16.10
2008,05,25,00,10,16.00
2008,05,25,00,11,16.00
2008,05,25,00,12,16.00
2008,05,25,00,13,15.90
2008,05,25,00,14,15.90
2008,05,25,00,15,15.90
2008,05,25,00,16,15.90
2008,05,25,00,17,15.90
2008,05,25,00,18,15.90
2008,05,25,00,19,15.90
2008,05,25,00,20,15.90
2008,05,25,00,21,15.90
2008,05,25,00,22,15.90
2008,05,25,00,23,15.90
2008,05,25,00,24,16.00
2008,05,25,00,25,16.00
2008,05,25,00,26,16.00
2008,05,25,00,27,16.10
2008,05,25,00,28,16.10
2008,05,25,00,29,16.10
2008,05,25,00,30,16.10
2008,05,25,00,31,16.20
2008,05,25,00,32,16.20
2008,05,25,00,33,16.20
2008,05,25,00,34,16.20
2008,05,25,00,35,16.20
2008,05,25,00,36,16.20
2008,05,25,00,37,16.20
2008,05,25,00,38,16.30
2008,05,25,00,39,16.30
2008,05,25,00,40,16.30
2008,05,25,00,41,16.30
2008,05,25,00,42,16.30
2008,05,25,00,43,16.30
2008,05,25,00,44,16.30
2008,05,25,00,45,16.30
2008,05,25,00,46,16.30
2008,05,25,00,47,16.20
2008,05,25,00,48,16.20
2008,05,25,00,49,16.20
2008,05,25,00,50,16.20
2008,05,25,00,51,16.20
2008,05,25,00,52,16.20
2008,05,25,00,53,16.30
2008,05,25,00,54,16.30
2008,05,25,00,55,16.30
2008,05,25,00,56,16.30
2008,05,25,00,57,16.30
2008,05,25,00,58,16.30
2008,05,25,00,59,16.30
2008,05,25,01,00,16.30
2008,05,25,01,01,16.30
2008,05,25,01,02,16.30
2008,05,25,01,03,16.30
2008,05,25,01,04,16.30
2008,05,25,01,05,16.30
2008,05,25,01,06,16.30
2008,05,25,01,07,16.30
2008,05,25,01,08,16.30
2008,05,25,01,09,16.30
2008,05,25,01,10,16.30
2008,05,25,01,11,16.30
2008,05,25,01,12,16.30
2008,05,25,01,13,16.30
2008,05,25,01,14,16.30
2008,05,25,01,15,16.30
2008,05,25,01,16,16.30
2008,05,25,01,17,16.30
2008,05,25,01,18,16.20
2008,05,25,01,19,16.30
2008,05,25,01,20,16.30
2008,05,25,01,21,16.30
2008,05,25,01,22,16.30
2008,05,25,01,23,16.30
2008,05,25,01,24,16.30
2008,05,25,01,25,16.30
2008,05,25,01,26,16.30
2008,05,25,01,27,16.30
2008,05,25,01,28,16.30
2008,05,25,01,29,16.30
2008,05,25,01,30,16.30
2008,05,25,01,31,16.30
2008,05,25,01,32,16.30
2008,05,25,01,33,16.30
2008,05,25,01,34,16.20
2008,05,25,01,35,16.20
2008,05,25,01,36,16.20
2008,05,25,01,37,16.20
2008,05,25,01,38,16.20
2008,05,25,01,39,16.20
2008,05,25,01,40,16.20
2008,05,25,01,41,16.20
2008,05,25,01,42,16.20
2008,05,25,01,43,16.10
2008,05,25,01,44,16.10
2008,05,25,01,45,16.10
2008,05,25,01,46,16.00
2008,05,25,01,47,16.00
2008,05,25,01,48,16.00
2008,05,25,01,49,15.90
2008,05,25,01,50,15.90
2008,05,25,01,51,15.90
2008,05,25,01,52,15.80
2008,05,25,01,53,15.80
2008,05,25,01,54,15.80
2008,05,25,01,55,15.80
2008,05,25,01,56,15.70
2008,05,25,01,57,15.70
2008,05,25,01,58,15.70
2008,05,25,01,59,15.60
2008,05,25,02,00,15.60
2008,05,25,02,01,15.60
2008,05,25,02,02,15.50
2008,05,25,02,03,15.50
2008,05,25,02,04,15.40
2008,05,25,02,05,15.40
2008,05,25,02,06,15.40
2008,05,25,02,07,15.40
2008,05,25,02,08,15.30
2008,05,25,02,09,15.30
2008,05,25,02,10,15.20
2008,05,25,02,11,15.20
2008,05,25,02,12,15.20
2008,05,25,02,13,15.20
2008,05,25,02,14,15.10
2008,05,25,02,15,15.20
2008,05,25,02,16,15.20
2008,05,25,02,17,15.20
2008,05,25,02,18,15.20
2008,05,25,02,19,15.20
2008,05,25,02,20,15.20
2008,05,25,02,21,15.20
2008,05,25,02,22,15.20
2008,05,25,02,23,15.20
2008,05,25,02,24,15.20
2008,05,25,02,25,15.20
2008,05,25,02,26,15.20
2008,05,25,02,27,15.20
2008,05,25,02,28,15.10
2008,05,25,02,29,15.10
2008,05,25,02,30,15.10
2008,05,25,02,31,15.10
2008,05,25,02,32,15.00
2008,05,25,02,33,15.00
2008,05,25,02,34,15.00
2008,05,25,02,35,15.00
2008,05,25,02,36,15.00
2008,05,25,02,37,15.00
2008,05,25,02,38,15.00
2008,05,25,02,39,15.00
2008,05,25,02,40,15.00
2008,05,25,02,41,15.00
2008,05,25,02,42,15.00
2008,05,25,02,43,15.00
2008,05,25,02,44,15.00
2008,05,25,02,45,15.00
2008,05,25,02,46,15.00
2008,05,25,02,47,15.00
2008,05,25,02,48,15.10
2008,05,25,02,49,15.10
2008,05,25,02,50,15.20
2008,05,25,02,51,15.20
2008,05,25,02,52,15.20
2008,05,25,02,53,15.20
2008,05,25,02,54,15.30
2008,05,25,02,55,15.30
2008,05,25,02,56,15.30
2008,05,25,02,57,15.30
2008,05,25,02,58,15.30
2008,05,25,02,59,15.20
2008,05,25,03,00,15.20
2008,05,25,03,01,15.20
2008,05,25,03,02,15.20
2008,05,25,03,03,15.20
2008,05,25,03,04,15.20
2008,05,25,03,05,15.20
2008,05,25,03,06,15.20
2008,05,25,03,07,15.20
2008,05,25,03,08,15.20
2008,05,25,03,09,15.20
2008,05,25,03,10,15.20
2008,05,25,03,11,15.20
2008,05,25,03,12,15.20
2008,05,25,03,13,15.20
2008,05,25,03,14,15.20
2008,05,25,03,15,15.20
2008,05,25,03,16,15.20
2008,05,25,03,17,15.20
2008,05,25,03,18,15.20
2008,05,25,03,19,15.20
2008,05,25,03,20,15.20
2008,05,25,03,21,15.30
2008,05,25,03,22,15.30
2008,05,25,03,23,15.30
2008,05,25,03,24,15.30
2008,05,25,03,25,15.30
2008,05,25,03,26,15.40
2008,05,25,03,27,15.40
2008,05,25,03,28,15.40
2008,05,25,03,29,15.40
2008,05,25,03,30,15.40
2008,05,25,03,31,15.40
2008,05,25,03,32,15.40
2008,05,25,03,33,15.40
2008,05,25,03,34,15.40
2008,05,25,03,35,15.40
2008,05,25,03,36,15.40
2008,05,25,03,37,15.40
2008,05,25,03,38,15.40
2008,05,25,03,39,15.40
2008,05,25,03,40,15.40
2008,05,25,03,41,15.50
2008,05,25,03,42,15.50
2008,05,25,03,43,15.50
2008,05,25,03,44,15.50
2008,05,25,03,45,15.50
2008,05,25,03,46,15.50
2008,05,25,03,47,15.50
2008,05,25,03,48,15.50
2008,05,25,03,49,15.50
2008,05,25,03,50,15.50
2008,05,25,03,51,15.50
2008,05,25,03,52,15.60
2008,05,25,03,53,15.60
2008,05,25,03,54,15.60
2008,05,25,03,55,15.60
2008,05,25,03,56,15.60
2008,05,25,03,57,15.60
2008,05,25,03,58,15.60
2008,05,25,03,59,15.60
2008,05,25,04,00,15.60
2008,05,25,04,01,15.70
2008,05,25,04,02,15.70
2008,05,25,04,03,15.80
2008,05,25,04,04,15.80
2008,05,25,04,05,15.90
2008,05,25,04,06,15.90
2008,05,25,04,20,15.60
2008,05,25,04,37,15.40
2008,05,25,04,47,15.30
2008,05,25,05,00,14.70
2008,05,25,05,11,14.50
2008,05,25,05,18,14.60
2008,05,25,05,19,14.60
2008,05,25,05,20,14.60
2008,05,25,05,21,14.60
2008,05,25,05,22,14.70
2008,05,25,05,23,14.70
2008,05,25,05,24,14.70
2008,05,25,05,25,14.70
2008,05,25,05,26,14.70
2008,05,25,05,27,14.80
2008,05,25,05,28,14.80
2008,05,25,05,29,14.80
2008,05,25,05,30,14.80
2008,05,25,05,31,14.80
2008,05,25,05,32,14.80
2008,05,25,05,33,14.80
2008,05,25,05,34,14.80
2008,05,25,05,35,14.80
2008,05,25,05,36,14.90
2008,05,25,05,37,14.90
2008,05,25,05,38,14.90
2008,05,25,05,39,14.90
2008,05,25,05,40,14.90
2008,05,25,05,41,15.00
2008,05,25,05,42,15.00
2008,05,25,05,43,15.00
2008,05,25,05,44,15.00
2008,05,25,05,45,15.00
2008,05,25,05,46,15.00
2008,05,25,05,47,14.90
2008,05,25,05,48,15.00
2008,05,25,05,49,14.90
2008,05,25,05,50,14.90
2008,05,25,05,51,14.80
2008,05,25,05,52,14.70
2008,05,25,05,53,14.60
2008,05,25,05,54,14.60
2008,05,25,05,55,14.50
2008,05,25,05,56,14.40
2008,05,25,05,57,14.40
2008,05,25,05,58,14.30
2008,05,25,05,59,14.20
2008,05,25,06,00,14.10
2008,05,25,06,01,14.00
2008,05,25,06,02,13.90
2008,05,25,06,03,13.90
2008,05,25,06,04,13.80
2008,05,25,06,05,13.80
2008,05,25,06,06,13.70
2008,05,25,06,07,13.70
2008,05,25,06,08,13.60
2008,05,25,06,09,13.60
2008,05,25,06,10,13.60
2008,05,25,06,11,13.50
2008,05,25,06,12,13.50
2008,05,25,06,13,13.40
2008,05,25,06,14,13.40
2008,05,25,06,15,13.40
2008,05,25,06,16,13.40
2008,05,25,06,17,13.30
2008,05,25,06,18,13.30
2008,05,25,06,19,13.30
2008,05,25,06,20,13.20
2008,05,25,06,21,13.20
2008,05,25,06,22,13.10
2008,05,25,06,23,13.10
2008,05,25,06,24,13.10
2008,05,25,06,25,13.00
2008,05,25,06,26,13.00
2008,05,25,06,27,12.90
2008,05,25,06,28,12.90
2008,05,25,06,29,12.90
2008,05,25,06,30,12.80
2008,05,25,06,31,12.80
2008,05,25,06,32,12.80
2008,05,25,06,33,12.70
2008,05,25,06,34,12.70
2008,05,25,06,35,12.70
2008,05,25,06,36,12.70
2008,05,25,06,37,12.70
2008,05,25,06,38,12.70
2008,05,25,06,39,12.70
2008,05,25,06,40,12.70
2008,05,25,06,41,12.70
2008,05,25,06,42,12.70
2008,05,25,06,43,12.70
2008,05,25,06,44,12.70
2008,05,25,06,45,12.70
2008,05,25,06,46,12.70
2008,05,25,06,47,12.70
2008,05,25,06,48,12.70
2008,05,25,06,49,12.70
2008,05,25,06,50,12.70
2008,05,25,06,51,12.70
2008,05,25,06,52,12.70
2008,05,25,06,53,12.70
2008,05,25,06,54,12.70
2008,05,25,06,55,12.70
2008,05,25,06,56,12.70
2008,05,25,06,57,12.70
2008,05,25,06,58,12.70
2008,05,25,06,59,12.70
2008,05,25,07,00,12.80
2008,05,25,07,01,12.80
2008,05,25,07,02,12.80
2008,05,25,07,03,12.80
2008,05,25,07,04,12.80
2008,05,25,07,05,12.80
2008,05,25,07,06,12.80
2008,05,25,07,07,12.80
2008,05,25,07,08,12.80
2008,05,25,07,09,12.80
2008,05,25,07,10,12.80
2008,05,25,07,11,12.90
2008,05,25,07,12,12.90
2008,05,25,07,13,12.90
2008,05,25,07,14,12.90
2008,05,25,07,15,13.00
2008,05,25,07,16,13.00
2008,05,25,07,17,13.00
2008,05,25,07,18,13.00
2008,05,25,07,19,13.10
2008,05,25,07,20,13.10
2008,05,25,07,21,13.10
2008,05,25,07,22,13.10
2008,05,25,07,23,13.10
2008,05,25,07,24,13.10
2008,05,25,07,25,13.20
2008,05,25,07,26,13.20
2008,05,25,07,27,13.20
2008,05,25,07,28,13.20
2008,05,25,07,29,13.20
2008,05,25,07,30,13.20
2008,05,25,07,31,13.20
2008,05,25,07,32,13.30
2008,05,25,07,33,13.30
2008,05,25,07,34,13.30
2008,05,25,07,35,13.30
2008,05,25,07,36,13.30
2008,05,25,07,37,13.30
2008,05,25,07,38,13.30
2008,05,25,07,39,13.30
2008,05,25,07,40,13.30
2008,05,25,07,41,13.30
2008,05,25,07,42,13.30
2008,05,25,07,43,13.30
2008,05,25,07,44,13.30
2008,05,25,07,45,13.30
2008,05,25,07,46,13.30
2008,05,25,07,47,13.30
2008,05,25,07,48,13.30
2008,05,25,07,49,13.30
2008,05,25,07,50,13.30
2008,05,25,07,51,13.30
2008,05,25,07,52,13.40
2008,05,25,07,53,13.40
2008,05,25,07,54,13.40
2008,05,25,07,55,13.40
2008,05,25,07,56,13.40
2008,05,25,07,57,13.50
2008,05,25,07,58,13.50
2008,05,25,07,59,13.50
2008,05,25,08,00,13.50
2008,05,25,08,01,13.50
2008,05,25,08,02,13.50
2008,05,25,08,03,13.50
2008,05,25,08,04,13.50
2008,05,25,08,05,13.50
2008,05,25,08,06,13.60
2008,05,25,08,07,13.60
2008,05,25,08,08,13.60
2008,05,25,08,09,13.60
2008,05,25,08,10,13.70
2008,05,25,08,11,13.70
2008,05,25,08,12,13.70
2008,05,25,08,13,13.70
2008,05,25,08,14,13.70
2008,05,25,08,15,13.80
2008,05,25,08,16,13.80
2008,05,25,08,17,13.80
2008,05,25,08,18,13.80
2008,05,25,08,19,13.80
2008,05,25,08,20,13.90
2008,05,25,08,21,13.90
2008,05,25,08,22,13.90
2008,05,25,08,23,13.90
2008,05,25,08,24,13.90
2008,05,25,08,25,13.90
2008,05,25,08,26,14.00
2008,05,25,08,27,14.00
2008,05,25,08,28,14.00
2008,05,25,08,29,14.00
2008,05,25,08,30,14.00
2008,05,25,08,31,14.00
2008,05,25,08,32,14.00
2008,05,25,08,33,14.00
2008,05,25,08,34,13.90
2008,05,25,08,35,14.00
2008,05,25,08,36,13.90
2008,05,25,08,37,14.00
2008,05,25,08,38,14.00
2008,05,25,08,39,14.00
2008,05,25,08,40,13.90
2008,05,25,08,41,13.90
2008,05,25,08,42,14.00
2008,05,25,08,43,14.00
2008,05,25,08,44,14.00
2008,05,25,08,45,14.00
2008,05,25,08,46,14.00
2008,05,25,08,47,14.00
2008,05,25,08,48,14.10
2008,05,25,08,49,14.10
2008,05,25,08,50,14.10
2008,05,25,08,51,14.10
2008,05,25,08,52,14.10
2008,05,25,08,53,14.10
2008,05,25,08,54,14.10
2008,05,25,08,55,14.10
2008,05,25,08,56,14.10
2008,05,25,08,57,14.10
2008,05,25,08,58,14.20
2008,05,25,08,59,14.20
2008,05,25,09,00,14.20
2008,05,25,09,01,14.20
2008,05,25,09,02,14.30
2008,05,25,09,03,14.30
2008,05,25,09,04,14.30
2008,05,25,09,05,14.30
2008,05,25,09,06,14.40
2008,05,25,09,07,14.40
2008,05,25,09,08,14.40
2008,05,25,09,09,14.40
2008,05,25,09,10,14.50
2008,05,25,09,11,14.60
2008,05,25,09,12,14.60
2008,05,25,09,13,14.70
2008,05,25,09,14,14.70
2008,05,25,09,15,14.70
2008,05,25,09,16,14.70
2008,05,25,09,17,14.70
2008,05,25,09,18,14.60
2008,05,25,09,19,14.60
2008,05,25,09,20,14.50
2008,05,25,09,21,14.50
2008,05,25,09,22,14.50
2008,05,25,09,23,14.40
2008,05,25,09,24,14.40
2008,05,25,09,25,14.40
2008,05,25,09,26,14.30
2008,05,25,09,27,14.30
2008,05,25,09,28,14.30
2008,05,25,09,29,14.30
2008,05,25,09,30,14.20
2008,05,25,09,31,14.20
2008,05,25,09,32,14.20
2008,05,25,09,33,14.20
2008,05,25,09,34,14.20
2008,05,25,09,35,14.20
2008,05,25,09,36,14.10
2008,05,25,09,37,14.10
2008,05,25,09,38,14.00
2008,05,25,09,39,13.90
2008,05,25,09,40,13.80
2008,05,25,09,41,13.80
2008,05,25,09,42,13.80
2008,05,25,09,43,13.80
2008,05,25,09,44,13.70
2008,05,25,09,45,13.70
2008,05,25,09,46,13.70
2008,05,25,09,47,13.80
2008,05,25,09,48,13.80
2008,05,25,09,49,13.80
2008,05,25,09,50,13.90
2008,05,25,09,51,14.00
2008,05,25,09,52,14.00
2008,05,25,09,53,14.10
2008,05,25,09,54,14.10
2008,05,25,09,55,14.20
2008,05,25,09,56,14.20
2008,05,25,09,57,14.20
2008,05,25,09,58,14.30
2008,05,25,09,59,14.30
2008,05,25,10,00,14.40
2008,05,25,10,01,14.40
2008,05,25,10,02,14.50
2008,05,25,10,03,14.50
2008,05,25,10,04,14.60
2008,05,25,10,05,14.60
2008,05,25,10,06,14.60
2008,05,25,10,07,14.70
2008,05,25,10,08,14.70
2008,05,25,10,09,14.80
2008,05,25,10,10,14.80
2008,05,25,10,11,14.90
2008,05,25,10,12,15.00
2008,05,25,10,13,15.00
2008,05,25,10,14,15.00
2008,05,25,10,15,15.00
2008,05,25,10,16,15.10
2008,05,25,10,17,15.10
2008,05,25,10,18,15.10
2008,05,25,10,19,15.00
2008,05,25,10,20,15.00
2008,05,25,10,21,15.00
2008,05,25,10,22,15.00
2008,05,25,10,23,15.00
2008,05,25,10,24,14.80
2008,05,25,10,25,14.70
2008,05,25,10,26,14.60
2008,05,25,10,27,14.50
2008,05,25,10,28,14.50
2008,05,25,10,29,14.60
2008,05,25,10,30,14.60
2008,05,25,10,31,14.70
2008,05,25,10,32,14.70
2008,05,25,10,33,14.90
2008,05,25,10,34,15.00
2008,05,25,10,35,15.00
2008,05,25,10,36,15.00
2008,05,25,10,37,15.10
2008,05,25,10,38,15.20
2008,05,25,10,39,15.40
2008,05,25,10,40,15.50
2008,05,25,10,41,15.60
2008,05,25,10,42,15.70
2008,05,25,10,43,15.90
2008,05,25,10,44,16.00
2008,05,25,10,45,16.10
2008,05,25,10,46,16.30
2008,05,25,10,47,16.50
2008,05,25,10,48,16.70
2008,05,25,10,49,17.00
2008,05,25,10,50,17.20
2008,05,25,10,51,17.30
2008,05,25,10,52,17.40
2008,05,25,10,53,17.50
2008,05,25,10,54,17.60
2008,05,25,10,55,17.70
2008,05,25,10,56,17.80
2008,05,25,10,57,17.90
2008,05,25,10,58,18.10
2008,05,25,10,59,18.20
2008,05,25,11,00,18.30
2008,05,25,11,01,18.40
2008,05,25,11,02,18.40
2008,05,25,11,03,18.50
2008,05,25,11,04,18.60
2008,05,25,11,05,18.60
2008,05,25,11,06,18.70
2008,05,25,11,07,18.70
2008,05,25,11,08,18.70
2008,05,25,11,09,18.70
2008,05,25,11,10,18.60
2008,05,25,11,11,18.60
2008,05,25,11,12,18.50
2008,05,25,11,13,18.50
2008,05,25,11,14,18.50
2008,05,25,11,15,18.50
2008,05,25,11,16,18.50
2008,05,25,11,17,18.60
2008,05,25,11,18,18.60
2008,05,25,11,19,18.60
2008,05,25,11,20,18.70
2008,05,25,11,21,18.70
2008,05,25,11,22,18.80
2008,05,25,11,23,18.80
2008,05,25,11,24,18.90
2008,05,25,11,25,19.00
2008,05,25,11,26,19.00
2008,05,25,11,27,19.10
2008,05,25,11,28,19.10
2008,05,25,11,29,19.20
2008,05,25,11,30,19.20
2008,05,25,11,31,19.20
2008,05,25,11,32,19.30
2008,05,25,11,33,19.30
2008,05,25,11,34,19.30
2008,05,25,11,35,19.40
2008,05,25,11,36,19.50
2008,05,25,11,37,19.50
2008,05,25,11,38,19.60
2008,05,25,11,39,19.60
2008,05,25,11,40,19.70
2008,05,25,11,41,19.80
2008,05,25,11,42,19.90
2008,05,25,11,43,20.00
2008,05,25,11,44,20.00
2008,05,25,11,45,20.10
2008,05,25,11,46,20.20
2008,05,25,11,47,20.20
2008,05,25,11,48,20.30
2008,05,25,11,49,20.40
2008,05,25,11,50,20.40
2008,05,25,11,51,20.60
2008,05,25,11,52,20.70
2008,05,25,11,53,20.90
2008,05,25,11,54,21.00
2008,05,25,11,55,21.20
2008,05,25,11,56,21.30
2008,05,25,11,57,21.40
2008,05,25,11,58,21.60
2008,05,25,11,59,21.70
2008,05,25,12,00,21.70
2008,05,25,12,01,21.70
2008,05,25,12,02,21.60
2008,05,25,12,03,21.60
2008,05,25,12,04,21.50
2008,05,25,12,05,21.30
2008,05,25,12,06,21.30
2008,05,25,12,07,21.30
2008,05,25,12,08,21.30
2008,05,25,12,09,21.40
2008,05,25,12,10,21.40
2008,05,25,12,11,21.50
2008,05,25,12,12,21.60
2008,05,25,12,13,21.60
2008,05,25,12,14,21.70
2008,05,25,12,15,21.60
2008,05,25,12,16,21.60
2008,05,25,12,17,21.50
2008,05,25,12,18,21.40
2008,05,25,12,19,21.50
2008,05,25,12,20,21.50
2008,05,25,12,21,21.60
2008,05,25,12,22,21.70
2008,05,25,12,23,21.70
2008,05,25,12,24,21.60
2008,05,25,12,25,21.60
2008,05,25,12,26,21.60
2008,05,25,12,27,21.60
2008,05,25,12,28,21.60
2008,05,25,12,29,21.40
2008,05,25,12,30,21.30
2008,05,25,12,31,21.30
2008,05,25,12,32,21.20
2008,05,25,12,33,21.20
2008,05,25,12,34,21.30
2008,05,25,12,35,21.30
2008,05,25,12,36,21.30
2008,05,25,12,37,21.30
2008,05,25,12,38,21.20
2008,05,25,12,39,21.30
2008,05,25,12,40,21.40
2008,05,25,12,41,21.50
2008,05,25,12,42,21.50
2008,05,25,12,43,21.60
2008,05,25,12,44,21.60
2008,05,25,12,45,21.60
2008,05,25,12,46,21.70
2008,05,25,12,47,21.70
2008,05,25,12,48,21.80
2008,05,25,12,49,21.80
2008,05,25,12,50,21.80
2008,05,25,12,51,21.70
2008,05,25,12,52,21.60
2008,05,25,12,53,21.50
2008,05,25,12,54,21.50
2008,05,25,12,55,21.50
2008,05,25,12,56,21.50
2008,05,25,12,57,21.60
2008,05,25,12,58,21.60
2008,05,25,12,59,21.60
2008,05,25,13,00,21.60
2008,05,25,13,01,21.60
2008,05,25,13,02,21.70
2008,05,25,13,03,21.70
2008,05,25,13,04,21.70
2008,05,25,13,05,21.60
2008,05,25,13,06,21.60
2008,05,25,13,07,21.60
2008,05,25,13,08,21.70
2008,05,25,13,09,21.70
2008,05,25,13,10,21.70
2008,05,25,13,11,21.60
2008,05,25,13,12,21.40
2008,05,25,13,13,21.20
2008,05,25,13,14,21.20
2008,05,25,13,15,21.20
2008,05,25,13,16,21.20
2008,05,25,13,17,21.30
2008,05,25,13,18,21.40
2008,05,25,13,19,21.40
2008,05,25,13,20,21.50
2008,05,25,13,21,21.50
2008,05,25,13,22,21.60
2008,05,25,13,23,21.60
2008,05,25,13,24,21.70
2008,05,25,13,25,21.60
2008,05,25,13,26,21.60
2008,05,25,13,27,21.60
2008,05,25,13,28,21.60
2008,05,25,13,29,21.60
2008,05,25,13,30,21.70
2008,05,25,13,31,21.70
2008,05,25,13,32,21.80
2008,05,25,13,33,21.80
2008,05,25,13,34,21.90
2008,05,25,13,35,21.90
2008,05,25,13,36,21.90
2008,05,25,13,37,21.80
2008,05,25,13,38,21.80
2008,05,25,13,39,21.80
2008,05,25,13,40,21.70
2008,05,25,13,41,21.70
2008,05,25,13,42,21.70
2008,05,25,13,43,21.70
2008,05,25,13,44,21.60
2008,05,25,13,45,21.50
2008,05,25,13,46,21.40
2008,05,25,13,47,21.40
2008,05,25,13,48,21.40
2008,05,25,13,49,21.30
2008,05,25,13,50,21.30
2008,05,25,13,51,21.30
2008,05,25,13,52,21.30
2008,05,25,13,53,21.30
2008,05,25,13,54,21.30
2008,05,25,13,55,21.30
2008,05,25,13,56,21.30
2008,05,25,13,57,21.30
2008,05,25,13,58,21.30
2008,05,25,13,59,21.40
2008,05,25,14,00,21.50
2008,05,25,14,01,21.60
2008,05,25,14,02,21.60
2008,05,25,14,03,21.70
2008,05,25,14,04,21.70
2008,05,25,14,05,21.80
2008,05,25,14,06,21.80
2008,05,25,14,07,21.90
2008,05,25,14,08,22.00
2008,05,25,14,09,22.00
2008,05,25,14,10,21.90
2008,05,25,14,11,21.80
2008,05,25,14,12,21.80
2008,05,25,14,13,21.70
2008,05,25,14,14,21.70
2008,05,25,14,15,21.80
2008,05,25,14,16,21.80
2008,05,25,14,17,21.80
2008,05,25,14,18,21.90
2008,05,25,14,19,22.00
2008,05,25,14,20,21.90
2008,05,25,14,21,22.00
2008,05,25,14,22,22.00
2008,05,25,14,23,21.90
2008,05,25,14,24,21.90
2008,05,25,14,25,21.90
2008,05,25,14,26,21.80
2008,05,25,14,27,21.80
2008,05,25,14,28,21.80
2008,05,25,14,29,21.80
2008,05,25,14,30,21.80
2008,05,25,14,31,21.80
2008,05,25,14,32,21.80
2008,05,25,14,33,21.80
2008,05,25,14,34,21.80
2008,05,25,14,35,21.80
2008,05,25,14,36,21.80
2008,05,25,14,37,21.90
2008,05,25,14,38,21.90
2008,05,25,14,39,21.80
2008,05,25,14,40,21.90
2008,05,25,14,41,21.90
2008,05,25,14,42,21.80
2008,05,25,14,43,21.80
2008,05,25,14,44,21.80
2008,05,25,14,45,21.80
2008,05,25,14,46,21.70
2008,05,25,14,47,21.80
2008,05,25,14,48,21.70
2008,05,25,14,49,21.80
2008,05,25,14,50,21.80
2008,05,25,14,51,21.80
2008,05,25,14,52,21.90
2008,05,25,14,53,21.90
2008,05,25,14,54,21.90
2008,05,25,14,55,21.90
2008,05,25,14,56,22.00
2008,05,25,14,57,22.10
2008,05,25,14,58,22.20
2008,05,25,14,59,22.30
2008,05,25,15,00,22.20
2008,05,25,15,01,22.20
2008,05,25,15,02,22.10
2008,05,25,15,03,22.00
2008,05,25,15,04,21.90
2008,05,25,15,05,21.80
2008,05,25,15,06,21.80
2008,05,25,15,07,21.60
2008,05,25,15,08,21.50
2008,05,25,15,09,21.40
2008,05,25,15,10,21.40
2008,05,25,15,11,21.40
2008,05,25,15,12,21.50
2008,05,25,15,13,21.50
2008,05,25,15,14,21.50
2008,05,25,15,15,21.40
2008,05,25,15,16,21.40
2008,05,25,15,17,21.30
2008,05,25,15,18,21.30
2008,05,25,15,19,21.30
2008,05,25,15,20,21.40
2008,05,25,15,21,21.40
2008,05,25,15,22,21.30
2008,05,25,15,23,21.40
2008,05,25,15,24,21.40
2008,05,25,15,25,21.40
2008,05,25,15,26,21.40
2008,05,25,15,27,21.40
2008,05,25,15,28,21.40
2008,05,25,15,29,21.40
2008,05,25,15,30,21.30
2008,05,25,15,31,21.30
2008,05,25,15,32,21.40
2008,05,25,15,33,21.50
2008,05,25,15,34,21.50
2008,05,25,15,35,21.60
2008,05,25,15,36,21.60
2008,05,25,15,37,21.50
2008,05,25,15,38,21.50
2008,05,25,15,39,21.50
2008,05,25,15,40,21.60
2008,05,25,15,41,21.60
2008,05,25,15,42,21.60
2008,05,25,15,43,21.60
2008,05,25,15,44,21.60
2008,05,25,15,45,21.60
2008,05,25,15,46,21.60
2008,05,25,15,47,21.70
2008,05,25,15,48,21.70
2008,05,25,15,49,21.70
2008,05,25,15,50,21.70
2008,05,25,15,51,21.80
2008,05,25,15,52,21.80
2008,05,25,15,53,21.90
2008,05,25,15,54,21.90
2008,05,25,15,55,21.90
2008,05,25,15,56,21.70
2008,05,25,15,57,21.60
2008,05,25,15,58,21.60
2008,05,25,15,59,21.50
2008,05,25,16,00,21.40
2008,05,25,16,01,21.40
2008,05,25,16,02,21.50
2008,05,25,16,03,21.50
2008,05,25,16,04,21.40
2008,05,25,16,05,21.30
2008,05,25,16,06,21.20
2008,05,25,16,07,21.20
2008,05,25,16,08,21.20
2008,05,25,16,09,21.20
2008,05,25,16,10,21.30
2008,05,25,16,11,21.30
2008,05,25,16,12,21.40
2008,05,25,16,13,21.40
2008,05,25,16,14,21.40
2008,05,25,16,15,21.40
2008,05,25,16,16,21.40
2008,05,25,16,17,21.50
2008,05,25,16,18,21.50
2008,05,25,16,19,21.60
2008,05,25,16,20,21.60
2008,05,25,16,21,21.70
2008,05,25,16,22,21.70
2008,05,25,16,23,21.80
2008,05,25,16,24,21.80
2008,05,25,16,25,21.80
2008,05,25,16,26,21.90
2008,05,25,16,27,21.90
2008,05,25,16,28,21.90
2008,05,25,16,29,21.80
2008,05,25,16,30,21.80
2008,05,25,16,31,21.80
2008,05,25,16,32,21.80
2008,05,25,16,33,21.70
2008,05,25,16,34,21.70
2008,05,25,16,35,21.70
2008,05,25,16,36,21.70
2008,05,25,16,37,21.70
2008,05,25,16,38,21.80
2008,05,25,16,39,21.80
2008,05,25,16,40,21.90
2008,05,25,16,41,21.90
2008,05,25,16,42,21.80
2008,05,25,16,43,21.80
2008,05,25,16,44,21.80
2008,05,25,16,45,21.70
2008,05,25,16,46,21.70
2008,05,25,16,47,21.70
2008,05,25,16,48,21.60
2008,05,25,16,49,21.60
2008,05,25,16,50,21.50
2008,05,25,16,51,21.50
2008,05,25,16,52,21.50
2008,05,25,16,53,21.50
2008,05,25,16,54,21.50
2008,05,25,16,55,21.50
2008,05,25,16,56,21.60
2008,05,25,16,57,21.60
2008,05,25,16,58,21.60
2008,05,25,16,59,21.60
2008,05,25,17,00,21.60
2008,05,25,17,01,21.50
2008,05,25,17,02,21.50
2008,05,25,17,03,21.50
2008,05,25,17,04,21.60
2008,05,25,17,05,21.60
2008,05,25,17,06,21.70
2008,05,25,17,07,21.80
2008,05,25,17,08,21.80
2008,05,25,17,09,21.80
2008,05,25,17,10,21.90
2008,05,25,17,11,21.90
2008,05,25,17,12,22.00
2008,05,25,17,13,22.00
2008,05,25,17,14,22.00
2008,05,25,17,15,22.10
2008,05,25,17,16,22.20
2008,05,25,17,17,22.20
2008,05,25,17,18,22.20
2008,05,25,17,19,22.20
2008,05,25,17,20,22.30
2008,05,25,17,21,22.20
2008,05,25,17,22,22.20
2008,05,25,17,23,22.20
2008,05,25,17,24,22.20
2008,05,25,17,25,22.20
2008,05,25,17,26,22.30
2008,05,25,17,27,22.30
2008,05,25,17,28,22.30
2008,05,25,17,29,22.30
2008,05,25,17,30,22.30
2008,05,25,17,31,22.20
2008,05,25,17,32,22.20
2008,05,25,17,33,22.20
2008,05,25,17,34,22.20
2008,05,25,17,35,22.20
2008,05,25,17,36,22.20
2008,05,25,17,37,22.20
2008,05,25,17,38,22.30
2008,05,25,17,39,22.30
2008,05,25,17,40,22.30
2008,05,25,17,41,22.30
2008,05,25,17,42,22.30
2008,05,25,17,43,22.30
2008,05,25,17,44,22.30
2008,05,25,17,45,22.30
2008,05,25,17,46,22.30
2008,05,25,17,47,22.30
2008,05,25,17,48,22.30
2008,05,25,17,49,22.10
2008,05,25,17,50,22.00
2008,05,25,17,51,21.90
2008,05,25,17,52,21.80
2008,05,25,17,53,21.80
2008,05,25,17,54,21.70
2008,05,25,17,55,21.70
2008,05,25,17,56,21.60
2008,05,25,17,57,21.50
2008,05,25,17,58,21.40
2008,05,25,17,59,21.30
2008,05,25,18,00,21.20
2008,05,25,18,01,21.10
2008,05,25,18,02,21.00
2008,05,25,18,03,20.90
2008,05,25,18,04,20.90
2008,05,25,18,05,20.80
2008,05,25,18,06,20.80
2008,05,25,18,07,20.80
2008,05,25,18,08,20.80
2008,05,25,18,09,20.70
2008,05,25,18,10,20.70
2008,05,25,18,11,20.60
2008,05,25,18,12,20.60
2008,05,25,18,13,20.60
2008,05,25,18,14,20.60
2008,05,25,18,15,20.60
2008,05,25,18,16,20.60
2008,05,25,18,17,20.60
2008,05,25,18,18,20.60
2008,05,25,18,19,20.70
2008,05,25,18,20,20.70
2008,05,25,18,21,20.70
2008,05,25,18,22,20.70
2008,05,25,18,23,20.70
2008,05,25,18,24,20.70
2008,05,25,18,25,20.70